Wind_Speed
44 44 44 44 44 44 45 45 45 45 44 45 46 47 48 48 49 50 50 51 51 51 51 51 51 52 52 53 53 53 54 54 54 54 53 53 52 52
44 44 44 44 43 44 44 44 44 44 44 44 45 46 47 48 49 50 50 50 50 50 50 50 50 50 51 51 52 52 52 52 52 53 52 52 50 49
44 44 44 43 43 44 44 44 44 44 44 44 45 46 47 48 49 49 49 49 49 48 48 48 49 49 50 51 51 52 52 52 51 51 50 50 48 48
44 44 44 44 43 43 43 44 44 44 44 44 45 46 46 46 46 47 47 47 47 47 47 47 48 48 48 49 50 50 49 49 48 48 48 47 46 46
43 42 42 42 42 42 43 43 43 42 42 43 43 44 44 44 44 45 45 45 45 45 45 45 45 45 45 46 46 45 44 43 44 44 44 44 44 45
41 41 40 40 40 41 42 41 41 41 40 41 41 42 42 43 43 43 43 43 43 43 43 43 43 42 43 42 41 40 40 40 40 41 41 42 42 43
40 40 40 40 40 40 40 40 39 39 39 40 40 40 41 41 41 41 41 40 40 41 40 41 41 40 40 39 38 38 38 38 38 38 39 40 40 40
39 39 39 39 39 39 38 38 38 39 39 39 39 39 39 39 39 39 39 38 38 38 38 38 38 37 37 37 36 37 37 36 36 37 37 37 37 37
36 36 36 37 37 36 36 37 37 38 38 39 39 39 38 38 38 38 37 37 36 36 36 35 36 36 36 36 35 35 35 35 35 34 34 34 34 34
34 34 34 34 34 34 35 35 36 36 37 38 37 37 37 37 37 36 35 35 35 35 34 33 33 33 34 33 33 33 33 33 32 31 31 30 31 32
32 32 32 32 32 33 33 34 35 35 36 36 36 35 35 34 34 33 33 32 32 32 31 31 31 31 31 31 32 32 32 31 30 30 29 29 29 30
31 31 31 31 30 31 31 32 33 33 34 35 34 34 32 32 32 31 31 30 29 29 29 29 30 30 29 30 30 30 30 30 29 28 29 29 29 29
30 30 29 29 29 29 29 29 30 31 31 32 31 30 30 30 30 30 29 28 27 28 28 28 28 28 28 27 27 27 27 27 27 27 28 28 27 27
27 27 27 27 27 27 27 27 28 28 29 29 29 28 28 29 29 28 27 26 27 27 27 27 27 27 26 25 25 25 25 25 25 25 25 25 25 25
25 25 24 25 24 25 26 26 26 26 26 27 27 27 27 28 27 27 25 25 25 26 26 26 26 25 25 24 24 23 23 23 23 23 22 22 22 23
24 23 23 23 23 23 23 23 23 25 25 26 26 26 26 27 26 25 25 25 25 25 25 25 24 24 23 23 23 23 22 21 21 21 21 20 20 21
22 22 22 22 22 22 22 22 23 24 25 26 26 26 26 26 25 25 24 24 24 24 24 23 23 22 22 22 21 21 20 19 19 19 19 18 18 18
22 22 22 21 21 22 22 22 23 23 24 24 25 25 25 24 24 23 23 23 23 22 22 21 21 20 20 19 19 18 18 18 18 18 17 17 16 16
21 21 21 21 20 21 21 21 21 22 23 23 23 23 23 23 22 21 21 21 20 20 19 19 18 17 17 17 17 17 17 17 17 17 16 16 15 15
19 19 20 20 20 20 20 20 20 21 21 21 21 21 21 20 19 18 18 18 18 17 17 16 16 16 15 15 15 16 16 16 16 16 15 14 14 13
18 18 19 20 20 19 19 19 19 19 19 19 19 19 18 17 16 16 15 15 15 15 14 14 14 14 14 14 14 15 15 15 14 14 13 12 12 11
17 17 18 19 18 18 18 18 17 18 18 18 17 17 16 15 14 14 14 14 13 13 12 12 13 13 13 13 13 13 13 12 12 11 11 11 10 9
15 15 16 16 17 17 16 16 16 17 17 17 16 16 15 14 13 12 12 11 11 11 11 11 11 11 11 11 11 11 10 10 10 10 10 9 8 8
Wind_Direction
273 274 276 278 279 280 280 280 280 280 280 281 280 281 281 281 281 282 282 282 282 281 282 281 279 278 278 278 277 276 275 275 274 273 272 272 271 270
273 275 277 279 280 281 281 281 281 281 280 280 280 281 281 282 283 283 282 282 282 282 281 281 280 280 279 279 279 278 277 276 275 273 272 271 270 269
274 275 277 279 280 281 281 281 281 281 281 281 281 282 283 283 284 284 284 284 284 283 282 282 282 281 281 280 279 278 277 276 275 273 271 270 268 268
275 277 278 279 279 281 281 281 282 283 282 281 282 283 284 284 284 285 286 285 284 284 283 283 283 283 283 283 281 279 277 276 274 273 271 269 268 266
276 278 279 279 279 280 281 282 283 283 284 284 283 284 285 285 285 286 286 286 286 286 285 285 285 285 284 284 283 281 278 276 275 273 271 269 267 266
276 277 278 278 278 280 281 282 283 284 285 286 286 285 286 286 286 286 286 286 287 287 287 286 286 286 285 285 284 282 280 279 276 274 272 271 269 266
276 277 277 277 278 280 281 281 283 284 286 287 288 287 287 286 287 287 288 287 288 288 288 287 287 287 286 285 284 283 282 280 278 276 274 272 270 268
277 277 277 278 279 280 281 281 283 285 287 289 289 289 288 288 288 289 289 289 288 288 288 288 288 288 287 286 285 284 284 283 281 279 276 274 271 270
276 277 277 279 280 280 281 283 284 286 287 289 290 290 289 288 289 290 290 290 290 289 288 288 288 288 288 288 287 286 285 284 283 281 278 276 273 271
276 277 277 277 277 280 281 283 285 287 289 291 292 291 290 289 290 290 290 291 290 290 290 290 290 290 290 290 289 288 287 286 284 282 280 277 275 272
277 277 277 276 277 279 282 283 285 286 289 292 293 293 292 292 292 292 292 292 291 290 291 291 291 291 291 291 290 289 289 288 286 284 280 277 276 274
278 278 276 276 278 280 282 284 286 287 290 292 294 294 293 293 294 295 294 293 292 290 291 292 292 292 292 292 291 291 289 288 287 284 282 280 277 275
278 278 277 276 278 282 284 286 288 289 291 292 293 293 293 294 295 296 295 293 293 293 293 293 293 294 294 292 291 291 290 288 286 285 283 281 280 278
279 278 278 277 280 283 286 289 290 290 291 292 293 293 294 295 296 297 295 294 294 295 295 295 295 295 295 294 292 292 291 290 288 287 285 283 282 280
280 280 279 279 283 287 289 291 291 292 293 294 294 295 296 296 296 295 295 294 296 297 297 297 297 297 297 296 295 294 292 290 289 288 286 285 283 280
279 278 278 280 283 289 291 292 292 293 294 295 295 295 296 296 296 295 295 295 296 297 298 299 299 298 298 297 297 296 294 292 289 287 287 286 283 282
277 276 277 280 282 286 290 292 294 294 295 296 296 297 297 296 296 296 296 297 297 298 298 299 299 299 299 299 298 297 295 293 291 288 287 287 285 284
276 275 276 279 282 286 290 294 296 297 298 298 298 297 296 296 296 296 296 297 298 298 298 299 300 300 300 300 300 299 296 295 295 294 292 289 286 283
275 275 276 279 283 287 289 293 296 298 299 300 299 299 299 298 297 297 298 299 300 300 300 300 301 302 303 303 303 303 301 300 299 298 295 291 288 285
276 275 277 280 284 287 290 293 297 300 301 301 302 302 302 301 299 299 301 303 303 305 304 304 305 306 307 307 307 307 306 305 302 299 296 293 291 290
278 277 278 282 285 286 288 294 298 301 303 305 305 306 306 304 302 302 304 306 307 308 308 308 309 310 311 311 312 312 312 312 309 305 301 296 292 290
281 279 279 282 284 286 289 294 299 303 305 307 308 309 309 307 305 303 305 308 310 312 313 314 315 316 316 316 316 317 319 319 319 318 314 308 301 297
281 283 283 284 286 289 290 292 298 304 307 308 308 310 309 308 306 307 308 311 314 315 318 320 322 322 323 325 328 329 330 332 333 330 325 318 310 307
Height
5651 5650 5648 5647 5645 5643 5641 5640 5639 5638 5637 5633 5630 5626 5624 5622 5619 5616 5613 5611 5608 5605 5602 5600 5597 5595 5594 5592 5590 5588 5587 5585 5584 5583 5582 5581 5580 5579
5639 5638 5637 5635 5633 5631 5629 5627 5626 5625 5624 5622 5618 5614 5611 5609 5606 5603 5600 5597 5594 5591 5588 5586 5583 5581 5579 5577 5575 5573 5572 5570 5568 5567 5566 5566 5565 5565
5627 5626 5625 5623 5622 5620 5618 5616 5614 5612 5611 5609 5605 5602 5599 5596 5593 5589 5586 5583 5580 5577 5574 5572 5569 5567 5565 5562 5560 5558 5556 5555 5553 5552 5551 5551 5551 5551
5616 5614 5613 5612 5610 5608 5606 5604 5602 5600 5598 5596 5593 5590 5586 5583 5580 5577 5574 5570 5567 5564 5561 5559 5556 5553 5550 5548 5545 5543 5541 5540 5538 5538 5537 5537 5537 5537
5604 5603 5601 5600 5598 5597 5595 5593 5590 5588 5585 5583 5581 5578 5574 5571 5568 5565 5561 5558 5555 5552 5549 5546 5543 5540 5537 5534 5532 5529 5527 5526 5525 5524 5523 5522 5523 5523
5593 5591 5590 5589 5587 5585 5584 5582 5579 5577 5574 5572 5569 5566 5563 5559 5556 5554 5551 5547 5543 5540 5537 5534 5531 5528 5525 5522 5520 5517 5515 5514 5512 5511 5510 5509 5509 5510
5581 5580 5579 5577 5576 5574 5573 5571 5569 5566 5564 5561 5558 5555 5552 5548 5545 5542 5539 5536 5533 5528 5526 5522 5519 5517 5514 5511 5508 5506 5504 5502 5501 5499 5498 5498 5497 5497
5570 5569 5567 5566 5565 5563 5562 5560 5558 5556 5554 5551 5548 5545 5541 5538 5535 5532 5529 5526 5523 5520 5516 5512 5509 5506 5503 5501 5498 5495 5493 5491 5490 5488 5487 5486 5486 5486
5559 5558 5557 5555 5554 5553 5552 5550 5548 5545 5543 5541 5538 5534 5532 5529 5526 5522 5519 5515 5512 5508 5505 5503 5499 5496 5493 5490 5488 5485 5483 5481 5479 5478 5476 5475 5475 5475
5549 5548 5547 5545 5544 5543 5542 5540 5538 5536 5533 5530 5528 5524 5521 5518 5515 5512 5509 5506 5502 5498 5496 5494 5490 5487 5484 5481 5478 5475 5473 5471 5469 5468 5467 5466 5465 5465
5539 5538 5537 5536 5535 5534 5533 5531 5529 5526 5523 5520 5518 5514 5511 5508 5505 5502 5499 5496 5494 5490 5487 5485 5482 5479 5476 5473 5469 5466 5464 5462 5460 5459 5457 5457 5456 5456
5530 5529 5528 5527 5525 5524 5523 5521 5519 5517 5514 5512 5508 5505 5502 5499 5496 5493 5490 5488 5485 5483 5480 5477 5474 5471 5469 5466 5462 5459 5456 5453 5452 5450 5449 5448 5447 5447
5520 5519 5518 5518 5516 5515 5514 5512 5511 5508 5506 5503 5500 5497 5494 5491 5488 5485 5482 5480 5478 5475 5472 5469 5466 5463 5460 5458 5455 5451 5448 5446 5444 5442 5440 5439 5438 5438
5512 5511 5510 5509 5508 5507 5506 5504 5502 5500 5498 5495 5492 5489 5486 5483 5480 5477 5475 5472 5470 5467 5464 5461 5459 5456 5453 5450 5448 5445 5441 5438 5436 5435 5433 5431 5430 5429
5505 5504 5503 5502 5501 5500 5498 5496 5494 5492 5490 5487 5485 5482 5479 5476 5473 5470 5467 5465 5462 5459 5456 5454 5451 5448 5445 5442 5440 5437 5435 5432 5429 5428 5426 5425 5424 5422
5497 5497 5496 5496 5495 5493 5492 5490 5487 5485 5483 5480 5478 5475 5472 5469 5466 5464 5461 5459 5456 5453 5450 5447 5444 5441 5439 5436 5433 5430 5428 5425 5424 5422 5420 5419 5417 5416
5490 5490 5489 5489 5488 5487 5485 5483 5481 5479 5476 5473 5471 5468 5465 5462 5459 5457 5454 5452 5449 5447 5444 5441 5438 5435 5433 5430 5427 5425 5422 5420 5418 5416 5415 5413 5412 5410
5484 5484 5483 5482 5481 5480 5479 5477 5475 5472 5469 5467 5464 5461 5458 5456 5453 5450 5448 5446 5443 5440 5438 5435 5433 5430 5428 5425 5422 5420 5417 5415 5413 5411 5409 5408 5407 5405
5478 5477 5477 5476 5475 5474 5472 5471 5468 5466 5463 5460 5458 5455 5452 5449 5447 5444 5442 5440 5437 5435 5432 5430 5427 5425 5423 5420 5418 5414 5412 5410 5408 5406 5404 5402 5401 5400
5472 5471 5471 5470 5469 5467 5466 5464 5462 5460 5457 5454 5451 5449 5446 5443 5441 5439 5437 5435 5432 5430 5427 5425 5423 5420 5418 5416 5413 5410 5407 5405 5403 5400 5399 5397 5396 5395
5465 5465 5464 5463 5462 5461 5460 5458 5456 5454 5452 5449 5446 5443 5440 5438 5436 5434 5432 5430 5428 5426 5423 5421 5419 5417 5414 5412 5409 5407 5404 5401 5398 5396 5394 5393 5392 5391
5460 5459 5458 5457 5456 5455 5454 5453 5451 5449 5446 5444 5441 5438 5436 5434 5432 5430 5428 5426 5424 5422 5420 5418 5416 5413 5411 5409 5406 5404 5401 5398 5395 5393 5390 5389 5388 5387
5454 5454 5453 5452 5451 5450 5449 5448 5446 5444 5442 5439 5437 5434 5432 5430 5428 5426 5425 5423 5421 5419 5417 5415 5413 5411 5408 5406 5404 5401 5399 5396 5393 5391 5389 5386 5385 5384